Home > Time Zones > World Clock > Weather > Belgium > Spa > Past weeks

Flag for Belgium Weather past 2 weeks in Spa, Belgium

Now
64 °F

Clear.


Feels Like: 64 °F
Forecast: 54 / 69 °F
Wind: 7 mph from Southeast

Location: Spa / La Sauveniere

Current Time: Aug 3, 2015 at 4:52:00 AM

Latest Report: Aug 3, 2015 at 4:00 AM


Visibility: 25 mi

Pressure: 30.02 "Hg

Humidity: 54%

Dew point: 47 °F

Location of SpaLocation

Historic Weather in Spa — Graph

°F

Spa temperature yesterday

Maximum temperature yesterday: 77 °F (at 6:00 PM)
Minimum temperature yesterday: 51 °F (at 6:00 AM)
Average temperature yesterday: 64 °F

Past Weeks' High & Low Weather Summary

 TemperatureHumidityPressure
High77 °F (Jul 24, 5:00 PM)97% (Jul 19, 5:00 AM)30.17 "Hg (Jul 19, 5:00 AM)
Low46 °F (Jul 31, 7:00 AM)35% (Aug 2, 6:00 PM)29.56 "Hg (Jul 25, 7:00 AM)
Average59 °F77%29.93 "Hg
* Reported Jul 19 3:00 AM — Aug 3 3:00 AM, Spa, Weather by CustomWeather, © 2015

Note: Actual official high and low records may vary slightly from our data, if they occured in-between our weather recording intervals... More about our weather records

Advertising

Spa weather history for previous 24 hours

 ConditionsComfort  
Time TempWeatherWind HumidityBarometerVisibility
3:00 AM
Mon, Aug 3
64 °FClear.7 mph55%30.03 "Hg25 mi
2:00 AM64 °FClear.6 mph57%30.04 "Hg28 mi
1:00 AM65 °FClear.6 mph59%30.03 "Hg22 mi
12:00 AM64 °FClear.5 mph63%30.04 "Hg25 mi
10:00 PM
Sun, Aug 2
67 °FClear.5 mph58%30.04 "Hg28 mi
9:00 PM68 °FSunny.1 mph67%30.03 "Hg19 mi
8:00 PM74 °FSunny.N/A54%30.02 "Hg17 mi
7:00 PM75 °FSunny.2 mph48%30.03 "Hg19 mi
6:00 PM77 °FSunny.2 mph35%30.04 "Hg19 mi
5:00 PM76 °FSunny.N/A36%30.05 "Hg18 mi
4:00 PM75 °FSunny.3 mph37%30.07 "Hg17 mi
3:00 PM74 °FSunny.2 mph37%30.09 "Hg19 mi
2:00 PM73 °FSunny.N/A39%30.10 "Hg17 mi
1:00 PM71 °FSunny.2 mph41%30.12 "Hg16 mi
12:00 PM70 °FSunny.N/A47%30.13 "Hg11 mi
11:00 AM68 °FSunny.1 mph49%30.14 "Hg19 mi
10:00 AM66 °FSunny.2 mph54%30.13 "Hg13 mi
9:00 AM63 °FSunny.2 mph63%30.13 "Hg16 mi
8:00 AM57 °FSunny.No wind73%30.15 "Hg14 mi
7:00 AM56 °FSunny.3 mph71%30.14 "Hg13 mi
6:00 AM51 °FClear.1 mph86%30.14 "Hg8 mi
5:00 AM52 °FClear.1 mph83%30.14 "Hg12 mi
4:00 AM51 °FClear.1 mph83%30.13 "Hg13 mi
Weather by CustomWeather, © 2015

See weather overviewHow to use our weather pages